CZ-6A DEB, 61306

Orbit data source: Space-Track

CZ-6A DEB, 61306 is space debris in LEO originally from a launch on Tue, 06 Aug 2024 UTC launched from the Taiyaun Space Center, China (TSC). Debris objects in space refer to the collection of defunct objects orbiting the Earth. Examples of debris include non-operational satellites, rocket bodies, and fragments generated from explosions, collisions, or faulty payload assembly.

Loading next visibility...
Identifier
61306, 2024-140TT
Orbit
LEO
Country
Flag of CNCN / PRC
Related business
Manufacturer
SAST
Mission
Spacecraft
Bus & Motor
Unknown
Mass
Unknown
Launch date (UTC)
2024-08-06 (1 year ago)
Launch vehicle
Unknown
Launch site
Taiyaun Space Center, China (TSC)
Object type
Payload
Rocket body
Debris
Shape & HBR
Unknown shape, 1.1 m
Radar Cross Section
Small (<0.1 m²)

Expand to show TLE details & history
Last TLE update: 20 hours ago

TLE from 20 hours ago
0 CZ-6A DEB
1 61306U 24140TT  25312.79786756  .00013341  00000-0  40403-2 0  9990
2 61306  88.1012 248.3664 0030536  12.1568 348.0364 14.41946818 62902
Epoch: 2025-11-08T19:08Z
TLE epoch observation values (Epoch: 2025-11-08T19:08:55.757Z)
Latitude
0.00003°
Longitude
-87.08824°
Altitude
733.851 km
Speed
7.499 km/s
True Right ascension
16h 33m 27s
True Declination
0° 00' 00"
Sunlit
Object was in daylight at epoch
Visualization orbit readout
Latitude
Unknown
Longitude
Unknown
Altitude
Unknown
Speed
Unknown
Apparent Right ascension
Unknown
Apparent Declination
Unknown
Sunlit
N/A
Visualization observer readout
Local Sidereal Time
11:21:57
Azimuth
Unknown
Elevation
Unknown
Doppler factor
Unknown
Orbital elements
Apogee altitude
770.764 km
Perigee altitude
727.237 km
Semi-major axis
7,127.138 km
Eccentricity
0.00305
Inclination
88.1012°
RAAN
248.3664°
Arg. of periapsis
12.1568°
True anomaly
347.96359°
Mean anomaly
348.0364°
Eccentric anomaly
348.00002°
Mean motion
3.6072 °/min
Orbital period
99.8 mins
BSTAR
0.0040403
Loading maneuver chart data...
Computing Atmospheric mass density...
Loading historical data...
Loading historical data...
Loading historical data...
Loading historical data...
Loading historical data...
Loading historical data...
Loading historical data...

Documentation

Showing up to 5 results
|